Location: Los Gatos B&B
(42.6926°N, 77.0646°W)
Time: 19:11:05
(UTC-04:00)

Amateur Radio Satellites - All Passes

Search period start: 04 September 2015 18:41
Search period end: 05 September 2015 18:41
Location: Los Gatos B&B, 42.6926°N, 77.0646°W

Satellite Date Start Highest point End Downlink Frequencies (MHz)
Time Altitude Azimuth
MOZHAYETS 4 04 Sep 18:50:38 18:54:00 20° 294° (WNW) 18:57:16
BRITE-PL 04 Sep 18:57:16 19:00:50 24° 66° (ENE) 19:04:45 437.365/2234.400
Cubesat XI-IV 04 Sep 19:00:14 19:05:27 56° 260° (W) 19:10:42 437.490
DOVE 4 04 Sep 19:00:52 19:01:13 10° 58° (ENE) 19:01:50 437.250
GOMX 1 04 Sep 19:05:04 19:08:09 18° 63° (ENE) 19:11:33 467.674
STRAND 1 04 Sep 19:13:10 19:16:39 19° 91° (E) 19:20:18 437.568
CUBESAT XI-V 04 Sep 19:18:00 19:22:40 79° 102° (ESE) 19:27:21 437.345
O/OREOS (USA 219) 04 Sep 19:19:55 19:24:21 50° 298° (WNW) 19:28:50 437.305
HO-68 04 Sep 19:30:39 19:36:32 30° 60° (ENE) 19:42:36 435.675
PRISM 04 Sep 19:30:46 19:33:16 16° 91° (E) 19:35:56 437.425
CUTE 1.7 + AOD 2 04 Sep 19:38:19 19:40:27 14° 64° (ENE) 19:42:45 437.475
CUTE-I 04 Sep 19:45:14 19:49:29 23° 268° (W) 19:53:36 437.470
CANX-2 04 Sep 19:51:50 19:55:01 21° 67° (ENE) 19:58:18 2200.000
Cosmos 2491 04 Sep 19:54:33 20:03:10 59° 76° (ENE) 20:11:50 435.465 / 435.565
YUBILEINY 04 Sep 20:02:41 20:09:34 28° 83° (E) 20:16:47 435.215
SEEDS 04 Sep 20:05:31 20:08:40 21° 68° (ENE) 20:11:55 437.485
AIST 1 04 Sep 20:08:34 20:12:13 26° 270° (W) 20:15:48
CUBEBUG 2 04 Sep 20:12:53 20:13:43 11° 60° (ENE) 20:14:48 437.445
COMPASS 1 04 Sep 20:19:57 20:23:16 23° 68° (ENE) 20:26:38 437.405
AAUSAT CUBESAT 2 04 Sep 20:26:18 20:29:35 23° 68° (ENE) 20:32:55 437.432
RS-15 04 Sep 20:31:20 20:40:05 24° 355° (N) 20:49:06 29.354- 29.394
DOVE 4 04 Sep 20:33:21 20:38:05 76° 74° (ENE) 20:43:08 437.250
BRITE-PL 04 Sep 20:35:00 20:39:10 37° 265° (W) 20:43:39 437.365/2234.400
Oscar 11 04 Sep 20:35:48 20:38:05 14° 64° (ENE) 20:40:32 145.826/435.025
GOMX 1 04 Sep 20:41:16 20:45:48 55° 261° (W) 20:50:44 467.674
CINEMA 3 04 Sep 20:47:16 20:51:51 48° 72° (ENE) 20:56:38 145.822/145.860
STRAND 1 04 Sep 20:51:16 20:56:15 54° 289° (WNW) 21:01:13 437.568
CUBESAT XI-V 04 Sep 20:57:33 20:59:33 12° 298° (WNW) 21:01:20 437.345
PRISM 04 Sep 21:05:02 21:08:56 43° 289° (WNW) 21:12:51 437.425
CUTE 1.7 + AOD 2 04 Sep 21:11:42 21:15:56 59° 260° (W) 21:20:10 437.475
HO-68 04 Sep 21:16:50 21:23:54 59° 259° (WSW) 21:31:00 435.675
ZACube-1 04 Sep 21:26:31 21:30:34 32° 70° (ENE) 21:34:42 437.345
CANX-2 04 Sep 21:26:47 21:30:45 36° 263° (W) 21:34:42 2200.000
FUNcube-1 04 Sep 21:29:48 21:33:53 34° 70° (ENE) 21:38:04 145.935
HUMSAT D 04 Sep 21:36:36 21:39:15 17° 65° (ENE) 21:42:03 437.325/437.525
SEEDS 04 Sep 21:40:21 21:44:16 35° 264° (W) 21:48:10 437.485
UWE-3 04 Sep 21:42:45 21:47:20 62° 74° (ENE) 21:52:00 435.000/436.395/437.385
CUBEBUG 2 04 Sep 21:44:58 21:49:40 84° 74° (ENE) 21:54:27 437.445
Cosmos 2491 04 Sep 21:52:10 21:59:36 31° 276° (W) 22:06:49 435.465 / 435.565
DELFI C3 04 Sep 21:53:26 21:57:25 59° 75° (ENE) 22:01:25 145.870
COMPASS 1 04 Sep 21:55:02 21:58:47 31° 264° (W) 22:02:31 437.405
YUBILEINY 04 Sep 21:57:05 22:05:49 66° 282° (WNW) 22:14:37 435.215
AAUSAT CUBESAT 2 04 Sep 22:01:17 22:05:02 31° 264° (W) 22:08:45 437.432
50 SAT 04 Sep 22:03:20 22:04:51 12° 64° (ENE) 22:06:33 437.505
Oscar 11 04 Sep 22:09:32 22:13:50 58° 260° (W) 22:18:08 145.826/435.025
DX 1 04 Sep 22:10:09 22:13:27 22° 66° (ENE) 22:16:51 434.975-435.025
DOVE 4 04 Sep 22:14:36 22:16:36 12° 275° (W) 22:18:22 437.250
UKube-1 04 Sep 22:15:40 22:18:58 22° 67° (ENE) 22:22:23 .
CINEMA 3 04 Sep 22:25:47 22:29:21 20° 270° (W) 22:32:52 145.822/145.860
BEESAT 3 04 Sep 22:29:52 22:33:34 34° 48° (NE) 22:37:14 437.485
CUBEBUG 1 04 Sep 22:37:36 22:40:18 17° 65° (ENE) 22:43:09 437.445
Cosmos 2504 04 Sep 22:41:56 22:49:22 40° 87° (E) 22:57:14 435.465 / 435.565
RS-15 04 Sep 22:47:01 22:57:16 34° 29° (NNE) 23:08:03 29.354- 29.394
BEESAT 2 04 Sep 22:48:34 22:52:24 39° 50° (NE) 22:56:11 435.950
AISAT 04 Sep 22:49:26 22:53:28 37° 70° (ENE) 22:57:35 437.250
ESTCUBE 1 04 Sep 22:52:56 22:56:48 29° 69° (ENE) 23:00:43 437.505/2401.250
ZACube-1 04 Sep 23:03:03 23:06:57 26° 267° (W) 23:10:47 437.345
FUNcube-1 04 Sep 23:06:27 23:10:15 25° 267° (W) 23:14:01 145.935
HUMSAT D 04 Sep 23:10:25 23:14:37 49° 261° (W) 23:18:51 437.325/437.525
UNISAT 6 04 Sep 23:11:22 23:15:29 34° 96° (E) 23:19:32 437.425
VELOX 1 04 Sep 23:15:56 23:20:18 67° 74° (ENE) 23:24:42 145.980
UWE-3 04 Sep 23:21:46 23:24:20 14° 272° (W) 23:26:43 435.000/436.395/437.385
CUBEBUG 2 04 Sep 23:26:01 23:27:05 10° 275° (W) 23:27:49 437.445
DUCHIFAT 1 04 Sep 23:26:23 23:29:02 16° 91° (E) 23:31:49 145.980
POLYITAN 1 04 Sep 23:29:01 23:32:02 19° 92° (E) 23:35:08 437.675
POPSAT HIP 1 04 Sep 23:29:47 23:32:47 19° 91° (E) 23:35:53 437.405
DELFI C3 04 Sep 23:31:34 23:32:55 11° 272° (W) 23:34:03 145.870
50 SAT 04 Sep 23:35:02 23:38:56 58° 260° (W) 23:42:50 437.505
CUSAT 1 04 Sep 23:37:23 23:41:25 40° 90° (E) 23:46:48 437.405
TIGRISAT 04 Sep 23:37:50 23:42:21 63° 101° (E) 23:46:44 435.000
NANOSAT C BR1 04 Sep 23:44:52 23:48:29 27° 95° (E) 23:52:09 145.865
DX 1 04 Sep 23:45:29 23:49:31 36° 263° (W) 23:53:31 434.975-435.025
QB50P2 04 Sep 23:47:23 23:51:10 30° 96° (E) 23:54:57 145.880/145.840
SPROUT 04 Sep 23:50:18 23:54:00 30° 69° (ENE) 23:57:49 437.525
UKube-1 04 Sep 23:50:58 23:54:56 34° 263° (W) 23:58:53 .
AIST 2 04 Sep 23:55:27 23:59:24 39° 50° (NE) 00:03:19 435.215
ANTELSAT 04 Sep 23:56:51 00:01:25 79° 284° (WNW) 00:05:49 437.575/2403.000
QB50P1 05 Sep 00:00:11 00:04:14 40° 97° (E) 00:08:17 145.935-145.965
YUBILEINY 05 Sep 00:00:29 00:04:55 14° 307° (NW) 00:08:46 435.215
BEESAT 3 05 Sep 00:08:04 00:11:20 24° 246° (WSW) 00:14:30 437.485
CUBEBUG 1 05 Sep 00:12:07 00:16:18 48° 261° (W) 00:20:33 437.445
AUBIESAT-1 05 Sep 00:18:02 00:21:52 79° 107° (ESE) 00:25:23 437.475
AISAT 05 Sep 00:26:44 00:30:10 21° 267° (W) 00:33:32 437.250
BEESAT 2 05 Sep 00:27:08 00:30:12 20° 247° (WSW) 00:33:09 435.950
M-CUBED/EXP-1 PRIME 05 Sep 00:27:55 00:31:46 64° 291° (WNW) 00:35:17 437.505
ESTCUBE 1 05 Sep 00:29:48 00:33:39 27° 265° (W) 00:37:27 437.505/2401.250
Cosmos 2504 05 Sep 00:33:32 00:41:29 47° 287° (WNW) 00:49:42 435.465 / 435.565
TISAT 1 05 Sep 00:35:47 00:39:53 52° 73° (ENE) 00:44:03 437.305
DANDE 05 Sep 00:38:30 00:42:22 81° 280° (W) 00:47:41 436.750
SO-50 05 Sep 00:38:38 00:43:25 74° 122° (ESE) 00:48:22 436.795
SWISSCUBE 05 Sep 00:46:54 00:49:39 16° 63° (ENE) 00:52:35 437.505
BUGSAT 1 05 Sep 00:48:15 00:52:33 83° 101° (ESE) 00:56:49 437.445
UNISAT 6 05 Sep 00:48:25 00:52:07 24° 293° (WNW) 00:55:38 437.425
VELOX 1 05 Sep 00:55:45 00:57:24 12° 272° (W) 00:58:48 145.980
GONETS M04 05 Sep 00:56:15 00:58:26 12° 74° (ENE) 01:01:20
RS-15 05 Sep 00:59:45 01:11:40 86° 56° (NE) 01:23:59 29.354- 29.394
DUCHIFAT 1 05 Sep 01:01:00 01:05:06 45° 288° (WNW) 01:09:10 145.980
POLYITAN 1 05 Sep 01:04:04 01:08:07 39° 289° (WNW) 01:12:06 437.675
POPSAT HIP 1 05 Sep 01:04:48 01:08:50 40° 289° (WNW) 01:12:50 437.405
TIGRISAT 05 Sep 01:16:04 01:18:35 14° 297° (WNW) 01:20:53 435.000
PCSat 05 Sep 01:17:20 01:22:38 59° 115° (ESE) 01:27:58 145.827
CUSAT 1 05 Sep 01:20:35 01:24:23 23° 298° (WNW) 01:28:56 437.405
NANOSAT C BR1 05 Sep 01:20:35 01:24:16 28° 291° (WNW) 01:27:53 145.865
QB50P2 05 Sep 01:23:23 01:26:57 25° 292° (WNW) 01:30:26 145.880/145.840
ITUPSAT 1 05 Sep 01:26:02 01:30:14 33° 69° (ENE) 01:34:31 437.325
SPROUT 05 Sep 01:26:30 01:30:06 25° 266° (W) 01:33:39 437.525
AIST 2 05 Sep 01:34:32 01:37:44 21° 247° (WSW) 01:40:50 435.215
QB50P1 05 Sep 01:36:42 01:39:51 20° 294° (WNW) 01:42:52 145.935-145.965
BEESAT 05 Sep 01:55:38 02:00:21 65° 74° (ENE) 02:05:06 436.000
KKS-1 05 Sep 01:56:07 01:57:25 11° 61° (ENE) 01:58:56 437.445
VERMONT LUNAR 05 Sep 02:00:10 02:02:26 19° 156° (SSE) 02:04:42 437.305
Oscar 19 05 Sep 02:12:47 02:17:42 42° 97° (E) 02:22:37 437.125/150
TISAT 1 05 Sep 02:13:45 02:16:02 14° 271° (W) 02:18:08 437.305
SO-50 05 Sep 02:20:54 02:24:32 20° 322° (NW) 02:28:09 436.795
SWISSCUBE 05 Sep 02:22:20 02:27:03 63° 259° (W) 02:31:48 437.505
BUGSAT 1 05 Sep 02:26:32 02:27:25 10° 298° (WNW) 02:28:04 437.445
Cosmos 2499 05 Sep 02:27:51 02:30:49 13° 75° (ENE) 02:34:30 435.465 / 435.565
GONETS M04 05 Sep 02:45:12 02:53:44 66° 93° (E) 03:02:22
STARS 05 Sep 02:59:17 03:03:05 29° 68° (ENE) 03:06:57 437.465
PCSat 05 Sep 03:02:01 03:06:27 24° 315° (NW) 03:10:50 145.827
ITUPSAT 1 05 Sep 03:04:03 03:08:10 28° 266° (W) 03:12:13 437.325
RS-15 05 Sep 03:13:32 03:23:03 27° 256° (WSW) 03:32:14 29.354- 29.394
ITAMSAT 1 05 Sep 03:21:46 03:26:45 46° 99° (E) 03:31:45 435.822/435.867
KKS-1 05 Sep 03:28:58 03:33:26 82° 256° (WSW) 03:37:57 437.445
Gurwin Techsat 1B 05 Sep 03:30:46 03:36:05 71° 102° (ESE) 03:41:24 435.225
VERMONT LUNAR 05 Sep 03:35:34 03:38:29 49° 172° (S) 03:41:23 437.305
BEESAT 05 Sep 03:36:11 03:38:44 14° 271° (W) 03:41:01 436.000
JAS-2 05 Sep 03:42:34 03:49:04 46° 96° (E) 03:54:50 435.910
O/OREOS (USA 219) 05 Sep 03:49:58 03:54:14 37° 60° (ENE) 03:58:31 437.305
Oscar 19 05 Sep 03:52:35 03:56:52 26° 295° (WNW) 04:01:01 437.125/150
PHONESAT 2.4 05 Sep 04:11:39 04:14:18 21° 155° (SSE) 04:16:59 2401.200-2431.200
Cosmos 2499 05 Sep 04:13:59 04:22:26 67° 93° (E) 04:31:15 435.465 / 435.565
MOZHAYETS 4 05 Sep 04:15:11 04:19:34 44° 72° (ENE) 04:23:57
HORYU 2 05 Sep 04:32:00 04:35:48 28° 95° (E) 04:39:39 437.375
STARS 05 Sep 04:35:41 04:39:30 27° 265° (W) 04:43:17 437.465
GONETS M04 05 Sep 04:44:01 04:51:22 29° 295° (WNW) 04:58:34
AO-7 05 Sep 04:57:47 05:05:57 58° 102° (ESE) 05:14:05 29.400- 29.500
ITAMSAT 1 05 Sep 05:01:53 05:06:01 24° 295° (WNW) 05:10:01 435.822/435.867
VERMONT LUNAR 05 Sep 05:11:48 05:14:42 48° 189° (S) 05:17:35 437.305
Gurwin Techsat 1B 05 Sep 05:12:09 05:15:33 17° 299° (WNW) 05:18:46 435.225
JAS-2 05 Sep 05:27:57 05:33:55 32° 297° (WNW) 05:39:11 435.910
O/OREOS (USA 219) 05 Sep 05:29:48 05:33:30 23° 257° (WSW) 05:37:03 437.305
PHONESAT 2.4 05 Sep 05:48:28 05:51:48 52° 171° (S) 05:55:08 2401.200-2431.200
MOZHAYETS 4 05 Sep 05:53:42 05:57:01 19° 269° (W) 06:00:13
HORYU 2 05 Sep 06:08:33 06:12:25 29° 292° (WNW) 06:16:12 437.375
Cosmos 2499 05 Sep 06:08:55 06:16:23 30° 295° (WNW) 06:23:49 435.465 / 435.565
YUBILEINY 05 Sep 06:12:01 06:16:01 14° 53° (NE) 06:20:36 435.215
CUTE-I 05 Sep 06:21:24 06:24:44 17° 89° (E) 06:28:16 437.470
CUBESAT XI-V 05 Sep 06:21:56 06:26:31 82° 76° (ENE) 06:31:08 437.345
PRISM 05 Sep 06:22:15 06:24:19 14° 64° (ENE) 06:26:33 437.425
STRAND 1 05 Sep 06:29:35 06:33:56 30° 67° (ENE) 06:38:22 437.568
VERMONT LUNAR 05 Sep 06:48:34 06:50:44 18° 204° (SSW) 06:52:52 437.305
AO-7 05 Sep 06:51:08 06:58:26 35° 301° (WNW) 07:05:35 29.400- 29.500
AIST 1 05 Sep 07:02:33 07:04:56 15° 87° (E) 07:07:29
Cosmos 2491 05 Sep 07:07:13 07:09:28 12° 75° (ENE) 07:12:27 435.465 / 435.565
ISS 05 Sep 07:09:29 07:12:13 25° 137° (SE) 07:14:59 145.825
Cubesat XI-IV 05 Sep 07:16:34 07:21:48 55° 100° (E) 07:27:02 437.490
PHONESAT 2.4 05 Sep 07:26:10 07:29:31 54° 188° (S) 07:32:51 2401.200-2431.200
SO-50 05 Sep 07:30:08 07:33:10 16° 34° (NE) 07:36:18 436.795
PRISM 05 Sep 07:55:22 07:59:22 53° 260° (W) 08:03:22 437.425
CUTE-I 05 Sep 08:00:03 08:05:20 63° 288° (WNW) 08:10:35 437.470
YUBILEINY 05 Sep 08:06:16 08:15:05 67° 78° (ENE) 08:23:49 435.215
STRAND 1 05 Sep 08:08:25 08:13:04 34° 264° (W) 08:17:41 437.568
PCSat 05 Sep 08:22:56 08:25:02 12° 33° (NNE) 08:27:19 145.827
Cosmos 2504 05 Sep 08:29:32 08:33:01 13° 53° (NE) 08:36:57 435.465 / 435.565
DOVE 4 05 Sep 08:32:18 08:36:24 23° 90° (E) 08:40:34 437.250
CUSAT 1 05 Sep 08:32:52 08:33:48 10° 51° (NE) 08:35:22 437.405
BRITE-PL 05 Sep 08:37:39 08:43:15 69° 100° (E) 08:48:57 437.365/2234.400
AIST 1 05 Sep 08:38:09 08:42:14 44° 283° (WNW) 08:46:20
GOMX 1 05 Sep 08:41:53 08:47:09 46° 97° (E) 08:52:24 467.674
CINEMA 3 05 Sep 08:43:52 08:45:26 12° 85° (E) 08:47:17 145.822/145.860
HO-68 05 Sep 08:44:13 08:50:00 26° 92° (E) 08:55:58 435.675
ISS 05 Sep 08:45:22 08:48:31 43° 334° (NNW) 08:51:39 145.825
Cosmos 2491 05 Sep 08:56:16 09:04:48 66° 93° (E) 09:13:26 435.465 / 435.565
CUTE 1.7 + AOD 2 05 Sep 08:56:43 08:59:58 22° 93° (E) 09:03:17 437.475
Cubesat XI-IV 05 Sep 08:57:33 09:01:33 21° 297° (WNW) 09:05:26 437.490
PHONESAT 2.4 05 Sep 09:04:17 09:07:03 23° 204° (SSW) 09:09:47 2401.200-2431.200
SO-50 05 Sep 09:09:35 09:14:34 80° 57° (ENE) 09:19:24 436.795
CANX-2 05 Sep 09:11:04 09:14:57 35° 96° (E) 09:18:49 2200.000
ANTELSAT 05 Sep 09:22:39 09:24:25 12° 62° (ENE) 09:26:25 437.575/2403.000
SEEDS 05 Sep 09:23:38 09:27:26 34° 96° (E) 09:31:15 437.485
AUBIESAT-1 05 Sep 09:32:47 09:35:19 15° 59° (ENE) 09:37:59 437.475
DANDE 05 Sep 09:33:19 09:38:50 21° 61° (ENE) 09:45:03 436.750
UWE-3 05 Sep 09:34:16 09:35:53 12° 86° (E) 09:37:46 435.000/436.395/437.385
CUBEBUG 2 05 Sep 09:36:43 09:39:42 17° 89° (E) 09:42:47 437.445
COMPASS 1 05 Sep 09:37:09 09:41:01 37° 97° (E) 09:44:52 437.405
M-CUBED/EXP-1 PRIME 05 Sep 09:41:57 09:45:28 21° 61° (ENE) 09:49:01 437.505
AAUSAT CUBESAT 2 05 Sep 09:42:56 09:46:45 36° 97° (E) 09:50:35 437.432
Oscar 11 05 Sep 09:56:37 10:00:02 23° 93° (E) 10:03:32 145.826/435.025
YUBILEINY 05 Sep 10:04:09 10:11:17 27° 277° (W) 10:18:05 435.215
PCSat 05 Sep 10:04:25 10:09:46 55° 55° (NE) 10:15:05 145.827
DOVE 4 05 Sep 10:09:18 10:14:24 47° 289° (WNW) 10:19:23 437.250
UNISAT 6 05 Sep 10:10:40 10:14:54 35° 70° (ENE) 10:19:12 437.425
CUSAT 1 05 Sep 10:10:51 10:18:31 47° 72° (ENE) 10:26:21 437.405
BRITE-PL 05 Sep 10:17:18 10:21:17 20° 296° (WNW) 10:25:07 437.365/2234.400
CINEMA 3 05 Sep 10:18:22 10:23:23 80° 283° (WNW) 10:28:11 145.822/145.860
Cosmos 2504 05 Sep 10:19:01 10:27:26 65° 78° (ENE) 10:35:15 435.465 / 435.565
DUCHIFAT 1 05 Sep 10:20:04 10:22:20 15° 64° (ENE) 10:24:46 145.980
GOMX 1 05 Sep 10:20:27 10:25:01 27° 294° (WNW) 10:29:27 467.674
ISS 05 Sep 10:23:11 10:25:31 18° 353° (N) 10:27:51 145.825
POLYITAN 1 05 Sep 10:23:11 10:25:53 17° 65° (ENE) 10:28:44 437.675
POPSAT HIP 1 05 Sep 10:23:47 10:26:27 17° 65° (ENE) 10:29:14 437.405
HO-68 05 Sep 10:31:10 10:38:16 61° 291° (WNW) 10:45:18 435.675
CUTE 1.7 + AOD 2 05 Sep 10:32:09 10:35:57 32° 289° (WNW) 10:39:41 437.475
TIGRISAT 05 Sep 10:36:41 10:41:19 61° 73° (ENE) 10:45:59 435.000
NANOSAT C BR1 05 Sep 10:38:18 10:41:36 23° 67° (ENE) 10:45:01 145.865
QB50P2 05 Sep 10:41:08 10:44:38 26° 68° (ENE) 10:48:13 145.880/145.840
CANX-2 05 Sep 10:47:27 10:50:40 21° 293° (WNW) 10:53:47 2200.000
ZACube-1 05 Sep 10:50:12 10:54:38 59° 100° (E) 10:58:54 437.345
SO-50 05 Sep 10:52:07 10:54:30 13° 251° (WSW) 10:56:37 436.795
FUNcube-1 05 Sep 10:53:14 10:57:39 62° 100° (E) 11:01:57 145.935
QB50P1 05 Sep 10:53:34 10:57:22 33° 70° (ENE) 11:01:16 145.935-145.965
HUMSAT D 05 Sep 10:54:06 10:57:30 24° 93° (E) 11:00:57 437.325/437.525
Cosmos 2491 05 Sep 10:55:08 11:02:29 28° 295° (WNW) 11:09:37 435.465 / 435.565
ANTELSAT 05 Sep 10:55:51 11:00:34 83° 255° (WSW) 11:05:20 437.575/2403.000
SEEDS 05 Sep 10:59:50 11:03:03 21° 292° (WNW) 11:06:09 437.485
AUBIESAT-1 05 Sep 11:04:51 11:09:34 72° 254° (WSW) 11:14:08 437.475
DELFI C3 05 Sep 11:06:21 11:10:22 88° 285° (WNW) 11:14:20 145.870
VELOX 1 05 Sep 11:07:33 11:09:16 12° 88° (E) 11:11:12 145.980
UWE-3 05 Sep 11:08:28 11:13:01 67° 285° (WNW) 11:17:24 435.000/436.395/437.385
50 SAT 05 Sep 11:10:37 11:12:35 14° 90° (E) 11:14:43 437.505
CUBEBUG 2 05 Sep 11:12:15 11:16:44 48° 288° (WNW) 11:21:03 437.445
COMPASS 1 05 Sep 11:13:26 11:16:27 19° 293° (WNW) 11:19:20 437.405
DANDE 05 Sep 11:15:02 11:23:02 85° 80° (E) 11:31:37 436.750
M-CUBED/EXP-1 PRIME 05 Sep 11:15:19 11:19:58 49° 256° (WSW) 11:24:28 437.505
AAUSAT CUBESAT 2 05 Sep 11:19:06 11:22:08 19° 293° (WNW) 11:25:03 437.432
Oscar 11 05 Sep 11:32:26 11:36:17 32° 290° (WNW) 11:40:04 145.826/435.025
DX 1 05 Sep 11:32:45 11:36:46 35° 97° (E) 11:40:48 434.975-435.025
UKube-1 05 Sep 11:37:18 11:41:17 35° 97° (E) 11:45:16 .
BUGSAT 1 05 Sep 11:38:44 11:42:46 61° 75° (ENE) 11:46:54 437.445
UNISAT 6 05 Sep 11:47:47 11:51:45 26° 267° (W) 11:55:37 437.425
PCSat 05 Sep 11:48:41 11:52:50 22° 252° (WSW) 11:56:49 145.827
DUCHIFAT 1 05 Sep 11:53:32 11:57:42 55° 260° (W) 12:01:56 145.980
CUSAT 1 05 Sep 11:53:32 12:01:03 43° 269° (W) 12:08:29 437.405
POLYITAN 1 05 Sep 11:57:18 12:01:26 47° 261° (W) 12:05:38 437.675
POPSAT HIP 1 05 Sep 11:57:50 12:01:57 48° 261° (W) 12:06:08 437.405
CINEMA 3 05 Sep 11:58:32 11:59:45 11° 301° (WNW) 12:00:42 145.822/145.860
CUBEBUG 1 05 Sep 12:00:14 12:04:03 28° 95° (E) 12:07:55 437.445
ISS 05 Sep 12:00:14 12:02:46 20° 13° (NNE) 12:05:18 145.825
Cosmos 2504 05 Sep 12:12:14 12:18:58 27° 278° (W) 12:25:10 435.465 / 435.565
NANOSAT C BR1 05 Sep 12:13:25 12:17:16 33° 264° (W) 12:21:08 145.865
AISAT 05 Sep 12:15:08 12:19:38 68° 102° (ESE) 12:24:06 437.250
TIGRISAT 05 Sep 12:15:48 12:18:31 15° 272° (W) 12:21:01 435.000
QB50P2 05 Sep 12:16:40 12:20:26 29° 265° (W) 12:24:11 145.880/145.840
ESTCUBE 1 05 Sep 12:20:45 12:25:12 57° 100° (E) 12:29:38 437.505/2401.250
HO-68 05 Sep 12:21:31 12:24:43 13° 310° (NW) 12:27:33 435.675
ZACube-1 05 Sep 12:27:57 12:30:30 15° 297° (WNW) 12:32:51 437.345
HUMSAT D 05 Sep 12:29:34 12:33:15 29° 291° (WNW) 12:36:49 437.325/437.525
QB50P1 05 Sep 12:29:56 12:33:19 22° 267° (W) 12:36:38 145.935-145.965
FUNcube-1 05 Sep 12:31:04 12:33:29 14° 297° (WNW) 12:35:41 145.935
VELOX 1 05 Sep 12:41:53 12:46:20 66° 286° (WNW) 12:50:46 145.980
50 SAT 05 Sep 12:43:43 12:47:23 42° 288° (WNW) 12:50:59 437.505
GONETS M04 05 Sep 12:54:41 13:02:26 34° 68° (ENE) 13:10:21
DANDE 05 Sep 12:59:33 13:05:34 23° 275° (W) 13:11:29 436.750
ITAMSAT 1 05 Sep 13:05:45 13:06:52 11° 58° (ENE) 13:08:16 435.822/435.867
DX 1 05 Sep 13:09:20 13:12:50 23° 293° (WNW) 13:16:15 434.975-435.025
SPROUT 05 Sep 13:11:22 13:15:38 52° 99° (E) 13:19:52 437.525
UKube-1 05 Sep 13:13:47 13:17:14 23° 293° (WNW) 13:20:35 .
Gurwin Techsat 1B 05 Sep 13:15:17 13:18:31 17° 61° (ENE) 13:21:56 435.225
BUGSAT 1 05 Sep 13:17:22 13:18:44 11° 272° (W) 13:19:53 437.445
Oscar 19 05 Sep 13:30:12 13:35:19 66° 73° (ENE) 13:40:30 437.125/150
ISS 05 Sep 13:36:21 13:39:37 72° 32° (NNE) 13:42:51 145.825
CUBEBUG 1 05 Sep 13:36:33 13:40:22 28° 291° (WNW) 13:44:07 437.445
AISAT 05 Sep 13:53:24 13:55:42 14° 298° (WNW) 13:57:49 437.250
JAS-2 05 Sep 13:54:14 14:00:33 29° 62° (ENE) 14:06:59 435.910
TISAT 1 05 Sep 13:54:49 13:59:08 88° 112° (ESE) 14:03:24 437.305
BEESAT 05 Sep 13:56:25 13:59:10 16° 90° (E) 14:02:06 436.000
ESTCUBE 1 05 Sep 13:58:54 14:01:39 16° 296° (WNW) 14:04:15 437.505/2401.250
BEESAT 3 05 Sep 14:00:03 14:03:56 47° 119° (ESE) 14:07:54 437.485
Cosmos 2499 05 Sep 14:05:40 14:12:23 26° 63° (ENE) 14:19:00 435.465 / 435.565
AO-7 05 Sep 14:08:22 14:13:51 21° 50° (NE) 14:19:37 29.400- 29.500
BEESAT 2 05 Sep 14:19:49 14:23:49 58° 120° (ESE) 14:27:53 435.950
SWISSCUBE 05 Sep 14:22:06 14:26:17 31° 95° (E) 14:30:31 437.505
ITAMSAT 1 05 Sep 14:40:27 14:45:35 76° 75° (ENE) 14:50:47 435.822/435.867
SPROUT 05 Sep 14:48:36 14:51:19 16° 295° (WNW) 14:53:52 437.525
GONETS M04 05 Sep 14:51:13 14:59:46 56° 269° (W) 15:08:16
Gurwin Techsat 1B 05 Sep 14:52:41 14:57:58 70° 257° (WSW) 15:03:19 435.225
ITUPSAT 1 05 Sep 15:02:52 15:07:39 71° 102° (ESE) 15:12:24 437.325
Oscar 19 05 Sep 15:12:03 15:15:14 16° 271° (W) 15:18:12 437.125/150
ISS 05 Sep 15:13:49 15:15:41 14° 228° (SW) 15:17:28 145.825
KKS-1 05 Sep 15:20:17 15:23:20 18° 91° (E) 15:26:31 437.445
RS-15 05 Sep 15:24:15 15:34:33 52° 112° (ESE) 15:45:20 29.354- 29.394
HORYU 2 05 Sep 15:30:54 15:34:46 29° 68° (ENE) 15:38:41 437.375
AIST 2 05 Sep 15:31:44 15:35:55 65° 121° (ESE) 15:40:09 435.215
BEESAT 05 Sep 15:32:45 15:37:27 57° 287° (WNW) 15:42:06 436.000
JAS-2 05 Sep 15:37:14 15:45:01 70° 259° (W) 15:52:50 435.910
BEESAT 3 05 Sep 15:38:59 15:42:07 20° 317° (NW) 15:45:11 437.485
AO-7 05 Sep 15:57:13 16:05:34 81° 70° (ENE) 16:13:56 29.400- 29.500
Cosmos 2499 05 Sep 15:58:00 16:06:34 72° 266° (W) 16:14:26 435.465 / 435.565
BEESAT 2 05 Sep 15:59:18 16:02:14 18° 319° (NW) 16:05:05 435.950
SWISSCUBE 05 Sep 15:59:58 16:04:06 30° 292° (WNW) 16:08:10 437.505
ITAMSAT 1 05 Sep 16:23:13 16:25:47 13° 272° (W) 16:28:04 435.822/435.867
STARS 05 Sep 16:23:47 16:28:07 50° 100° (E) 16:32:26 437.465
ITUPSAT 1 05 Sep 16:42:25 16:45:01 14° 298° (WNW) 16:47:26 437.325
KKS-1 05 Sep 16:55:55 17:00:13 44° 289° (WNW) 17:04:28 437.445
Cubesat XI-IV 05 Sep 17:02:42 17:05:16 14° 59° (ENE) 17:08:04 437.490
HORYU 2 05 Sep 17:07:28 17:11:23 28° 265° (W) 17:15:14 437.375
AIST 2 05 Sep 17:11:59 17:14:56 18° 320° (NW) 17:17:48 435.215
JAS-2 05 Sep 17:27:48 17:31:32 13° 279° (W) 17:34:39 435.910
RS-15 05 Sep 17:36:21 17:47:04 52° 317° (NW) 17:58:12 29.354- 29.394
CUTE-I 05 Sep 17:43:37 17:48:12 31° 67° (ENE) 17:52:52 437.470
MOZHAYETS 4 05 Sep 17:46:17 17:50:53 84° 281° (WNW) 17:55:25
AO-7 05 Sep 17:53:06 17:59:23 22° 270° (W) 18:05:18 29.400- 29.500
Cosmos 2499 05 Sep 17:54:25 17:58:12 13° 285° (WNW) 18:01:18 435.465 / 435.565
STARS 05 Sep 18:01:15 18:04:12 17° 296° (WNW) 18:07:01 437.465
O/OREOS (USA 219) 05 Sep 18:02:59 18:07:07 36° 106° (ESE) 18:11:20 437.305
CUBESAT XI-V 05 Sep 18:18:36 18:21:55 20° 91° (E) 18:25:23 437.345
